Weather History for Cavalier, ND

Change the Weather History Date:

Friday, March 21, 2014

  Actual Average (KGAF) Record (KGAF)
Temperature  
Mean Temperature 19 °F -  
Max Temperature 32 °F 38 °F 62 °F (2012)
Min Temperature 6 °F 20 °F -12 °F (1965)
Degree Days  
Heating Degree Days 46    
Moisture  
Dew Point 11 °F    
Average Humidity 81    
Maximum Humidity 100    
Minimum Humidity 62    
Precipitation  
Precipitation 0.09 in - - ()
Sea Level Pressure  
Sea Level Pressure 30.13 in    
Wind  
Wind Speed 20 mph (North)    
Max Wind Speed 34 mph    
Max Gust Speed 48 mph    
Visibility 7 miles    
Events Rain , Snow    
Averages and records for this station are not official NWS values.
T = Trace of Precipitation, MM = Missing Value Source: NWS Daily Summary

Daily Weather History Graph

Daily Weather History Graph

Search for Another Location

Airport:

Trip Planner

Search our weather history database for the weather conditions in past years. The results will help you decide how hot, cold, wet, or windy it might be!

Date:

Astronomy

Mar. 21, 2014 Rise Set
Actual Time 7:31 AM CDT 7:44 PM CDT
Civil Twilight 6:59 AM CDT 8:16 PM CDT
Nautical Twilight 6:22 AM CDT 8:53 PM CDT
Astronomical Twilight 5:44 AM CDT 9:32 PM CDT
Moon 12:26 AM CDT (3/21) 10:01 AM CDT (3/21)
Length of Visible Light 13h 16m
Length of Day
12h 13m
Waning Gibbous, 75% of the Moon is Illuminated
Mar 21
Waning Gibbous
Mar 23
Last Quarter
Mar 30
New
Apr 7
First Quarter
Apr 15
Full

Hourly Weather History & Observations

Time (CDT) Temp. Windchill Dew Point Humidity Pressure Visibility Wind Dir Wind Speed Gust Speed Precip Events Conditions
12:15 AM 32.0 °F 23.6 °F 30.2 °F 93% 29.81 in 1.8 mi NE 10.4 mph 16.1 mph 0.03 in Snow Light Snow
12:35 AM 32.0 °F 22.5 °F 32.0 °F 100% 29.81 in 2.5 mi NE 12.7 mph 17.3 mph 0.05 in Snow Light Snow
12:55 AM 32.0 °F 23.0 °F 32.0 °F 100% 29.81 in 5.0 mi NE 11.5 mph - 0.05 in Snow Light Snow
1:15 AM 32.0 °F 23.0 °F 32.0 °F 100% 29.81 in 5.0 mi NE 11.5 mph - N/A Snow Light Snow
1:35 AM 32.0 °F 23.0 °F 32.0 °F 100% 29.81 in 3.0 mi NNE 11.5 mph - N/A Snow Light Snow
1:55 AM 32.0 °F 23.0 °F 32.0 °F 100% 29.81 in 4.0 mi NNE 11.5 mph 18.4 mph N/A Snow Light Snow
2:15 AM 32.0 °F 22.5 °F 32.0 °F 100% 29.82 in 5.0 mi NNE 12.7 mph 17.3 mph N/A   Overcast
2:35 AM 32.0 °F 22.1 °F 32.0 °F 100% 29.81 in 10.0 mi NNE 13.8 mph - N/A   Overcast
2:55 AM 32.0 °F 22.5 °F 32.0 °F 100% 29.82 in 5.0 mi North 12.7 mph - N/A   Overcast
3:15 AM 32.0 °F 22.1 °F 32.0 °F 100% 29.83 in 2.5 mi North 13.8 mph 17.3 mph N/A Snow Light Snow
3:35 AM 32.0 °F 21.6 °F 32.0 °F 100% 29.83 in 3.0 mi North 15.0 mph 21.9 mph N/A Rain Light Rain
3:55 AM 32.0 °F 21.6 °F 30.2 °F 93% 29.83 in 4.0 mi North 15.0 mph 19.6 mph N/A Rain Light Rain
4:15 AM 32.0 °F 20.5 °F 30.2 °F 93% 29.84 in 3.0 mi North 18.4 mph 28.8 mph N/A Rain Light Rain
4:35 AM 30.2 °F 17.1 °F 28.4 °F 93% 29.85 in 0.8 mi North 21.9 mph 28.8 mph N/A Rain Light Freezing Rain
4:55 AM 28.4 °F 14.7 °F 28.4 °F 100% 29.86 in 3.0 mi North 21.9 mph 31.1 mph N/A   Overcast
5:15 AM 24.8 °F 10.0 °F 23.0 °F 93% 29.88 in 2.5 mi North 21.9 mph 33.4 mph N/A Rain Light Freezing Rain
5:35 AM 24.8 °F 10.0 °F 23.0 °F 93% 29.89 in 5.0 mi North 21.9 mph 34.5 mph N/A   Overcast
5:55 AM 23.0 °F 5.7 °F 21.2 °F 93% 29.90 in 4.0 mi North 28.8 mph 38.0 mph N/A   Overcast
6:15 AM 23.0 °F 4.9 °F 21.2 °F 93% 29.91 in 2.5 mi North 32.2 mph 41.4 mph N/A Rain Light Freezing Rain
6:35 AM 23.0 °F 5.4 °F 19.4 °F 86% 29.93 in 3.0 mi North 29.9 mph 41.4 mph 0.01 in Rain Light Freezing Rain
6:55 AM 19.4 °F -0.0 °F 17.6 °F 93% 29.95 in 3.0 mi North 32.2 mph 43.7 mph 0.01 in Snow Light Snow
7:15 AM 19.4 °F 0.8 °F 15.8 °F 86% 29.96 in 2.0 mi North 28.8 mph 41.4 mph N/A Snow Light Snow
7:35 AM 17.6 °F -2.2 °F 14.0 °F 86% 29.98 in 2.5 mi North 31.1 mph 41.4 mph N/A Snow Light Snow
7:55 AM 15.8 °F -4.7 °F 10.4 °F 79% 30.00 in 7.0 mi North 31.1 mph 41.4 mph 0.01 in   Overcast
8:15 AM 15.8 °F -4.1 °F 10.4 °F 79% 30.02 in 3.0 mi NNW 28.8 mph 41.4 mph N/A Snow Light Snow
8:35 AM 14.0 °F -8.0 °F 8.6 °F 79% 30.04 in 1.2 mi North 34.5 mph 46.0 mph N/A Snow Light Snow
8:55 AM 12.2 °F -9.9 °F 6.8 °F 79% 30.05 in 1.2 mi NNW 32.2 mph 42.6 mph 0.01 in Snow Light Snow
9:15 AM 10.4 °F -12.3 °F 6.8 °F 85% 30.07 in 2.5 mi NNW 32.2 mph 46.0 mph N/A   Overcast
9:35 AM 10.4 °F -12.0 °F 6.8 °F 85% 30.08 in 6.0 mi North 31.1 mph 47.2 mph 0.01 in   Overcast
9:55 AM 10.4 °F -11.0 °F 6.8 °F 85% 30.10 in 10.0 mi NNW 27.6 mph 40.3 mph 0.01 in   Overcast
10:15 AM 10.4 °F -12.7 °F 5.0 °F 79% 30.11 in 7.0 mi North 33.4 mph 44.9 mph N/A Snow Light Snow
10:35 AM 10.4 °F -11.0 °F 5.0 °F 79% 30.12 in 10.0 mi North 27.6 mph 38.0 mph N/A   Overcast
10:55 AM 10.4 °F -11.0 °F 3.2 °F 73% 30.13 in 10.0 mi NNW 27.6 mph 44.9 mph N/A Snow Light Snow
11:15 AM 10.4 °F -12.7 °F 5.0 °F 79% 30.14 in 9.0 mi NNW 33.4 mph 46.0 mph N/A   Overcast
11:35 AM 10.4 °F -13.0 °F 3.2 °F 73% 30.15 in 10.0 mi North 34.5 mph 48.3 mph N/A Snow Light Snow
11:55 AM 10.4 °F -12.0 °F 5.0 °F 79% 30.16 in 10.0 mi North 31.1 mph 43.7 mph N/A   Partly Cloudy
12:15 PM 10.4 °F -11.0 °F 5.0 °F 79% 30.17 in 7.0 mi NNW 27.6 mph 40.3 mph N/A   Scattered Clouds
12:35 PM 10.4 °F -11.0 °F 5.0 °F 79% 30.18 in 7.0 mi North 27.6 mph 46.0 mph N/A   Mostly Cloudy
12:55 PM 10.4 °F -9.9 °F 5.0 °F 79% 30.19 in 8.0 mi North 24.2 mph 43.7 mph N/A   Scattered Clouds
1:15 PM 12.2 °F -8.9 °F 6.8 °F 79% 30.20 in 6.0 mi North 28.8 mph 36.8 mph N/A   Haze
1:35 PM 12.2 °F -8.6 °F 6.8 °F 79% 30.21 in 2.5 mi NNW 27.6 mph 33.4 mph N/A Snow Light Snow
1:55 PM 12.2 °F -7.5 °F 5.0 °F 73% 30.22 in 4.0 mi North 24.2 mph 36.8 mph N/A Snow Light Snow
2:15 PM 12.2 °F -8.6 °F 6.8 °F 79% 30.22 in 4.0 mi NNW 27.6 mph 34.5 mph N/A Snow Light Snow
2:35 PM 12.2 °F -8.2 °F 5.0 °F 73% 30.23 in 4.0 mi NNW 26.5 mph 36.8 mph N/A Snow Light Snow
2:55 PM 12.2 °F -8.6 °F 5.0 °F 73% 30.24 in 10.0 mi NNW 27.6 mph 38.0 mph N/A   Mostly Cloudy
3:15 PM 10.4 °F -10.3 °F 3.2 °F 73% 30.25 in 10.0 mi North 25.3 mph 38.0 mph N/A   Partly Cloudy
3:35 PM 12.2 °F -8.2 °F 5.0 °F 73% 30.25 in 10.0 mi North 26.5 mph 36.8 mph N/A   Partly Cloudy
3:55 PM 10.4 °F -9.9 °F 3.2 °F 73% 30.26 in 9.0 mi NNW 24.2 mph 35.7 mph N/A   Scattered Clouds
4:15 PM 10.4 °F -11.0 °F 3.2 °F 73% 30.27 in 10.0 mi North 27.6 mph 35.7 mph N/A   Partly Cloudy
4:35 PM 10.4 °F -9.5 °F 3.2 °F 73% 30.28 in 10.0 mi NNW 23.0 mph 32.2 mph N/A   Partly Cloudy
4:55 PM 10.4 °F -9.9 °F 1.4 °F 67% 30.28 in 10.0 mi NNW 24.2 mph 35.7 mph N/A   Partly Cloudy
5:15 PM 10.4 °F -9.9 °F 1.4 °F 67% 30.29 in 10.0 mi NNW 24.2 mph 31.1 mph N/A   Partly Cloudy
5:35 PM 10.4 °F -9.5 °F 1.4 °F 67% 30.30 in 10.0 mi NNW 23.0 mph 31.1 mph N/A   Clear
5:55 PM 10.4 °F -8.2 °F 1.4 °F 67% 30.31 in 10.0 mi NNW 19.6 mph 32.2 mph N/A   Clear
6:15 PM 10.4 °F -9.5 °F 1.4 °F 67% 30.32 in 10.0 mi North 23.0 mph 31.1 mph N/A   Clear
6:35 PM 10.4 °F -9.1 °F 1.4 °F 67% 30.33 in 10.0 mi NNW 21.9 mph 28.8 mph N/A   Clear
6:55 PM 10.4 °F -9.1 °F -0.4 °F 62% 30.33 in 10.0 mi North 21.9 mph 27.6 mph N/A   Clear
7:15 PM 8.6 °F -10.5 °F -0.4 °F 67% 30.34 in 10.0 mi NNW 19.6 mph 28.8 mph N/A   Clear
7:35 PM 8.6 °F -10.5 °F -0.4 °F 67% 30.35 in 10.0 mi NNW 19.6 mph 27.6 mph N/A   Clear
7:55 PM 8.6 °F -11.0 °F -0.4 °F 67% 30.36 in 10.0 mi NNW 20.7 mph 26.5 mph N/A   Clear
8:15 PM 8.6 °F -10.5 °F -0.4 °F 67% 30.37 in 10.0 mi NNW 19.6 mph 28.8 mph N/A   Clear
8:35 PM 8.6 °F -8.3 °F -0.4 °F 67% 30.37 in 10.0 mi NNW 15.0 mph 25.3 mph N/A   Clear
8:55 PM 8.6 °F -8.9 °F -0.4 °F 67% 30.38 in 10.0 mi North 16.1 mph 25.3 mph N/A   Clear
9:15 PM 6.8 °F -6.9 °F 1.4 °F 79% 30.39 in 10.0 mi North 9.2 mph - N/A   Clear
9:35 PM 6.8 °F -6.9 °F -0.4 °F 72% 30.39 in 10.0 mi North 9.2 mph - N/A   Clear
9:55 PM 6.8 °F -6.9 °F -0.4 °F 72% 30.40 in 10.0 mi North 9.2 mph - N/A   Clear
10:15 PM 6.8 °F -8.6 °F -0.4 °F 72% 30.40 in 10.0 mi NNW 11.5 mph - N/A   Clear
10:35 PM 6.8 °F -7.8 °F -0.4 °F 72% 30.41 in 10.0 mi NNW 10.4 mph - N/A   Clear
10:55 PM 6.8 °F -8.6 °F -0.4 °F 72% 30.41 in 10.0 mi NNW 11.5 mph - N/A   Clear
11:15 PM 6.8 °F -7.8 °F -0.4 °F 72% 30.42 in 10.0 mi NNW 10.4 mph 16.1 mph N/A   Clear
11:35 PM 8.6 °F -7.7 °F -0.4 °F 67% 30.42 in 10.0 mi NNW 13.8 mph - N/A   Clear
11:55 PM 6.8 °F -9.3 °F -0.4 °F 72% 30.42 in 10.0 mi NNW 12.7 mph 19.6 mph N/A   Clear